SAS4561 ENBO-ENVA

Flight info

Callsign SAS4561
Flight time 0h 42m
Altitude 40000
Route DISMU DCT NUPGO
Aircraft B737/M-SDE2E3FGHIRWXY/LB1

Departure

Time 2026-04-29 14:42
Airport Bodø Airport (ENBO)

Arrival

Time 2026-04-29 15:25
Airport Trondheim Airport, Værnes (ENVA)
Time Latitude Longitude Altitude Speed Heading
2026-04-29 13:57 67.27149 14.36687 46 ft 0 kts 34°
2026-04-29 14:36 67.27146 14.36683 46 ft 3 kts 34°
2026-04-29 14:37 67.27124 14.36644 41 ft 4 kts 34°
2026-04-29 14:37 67.27102 14.36604 42 ft 4 kts 34°
2026-04-29 14:37 67.27092 14.36587 43 ft 0 kts 34°
2026-04-29 14:39 67.27094 14.36598 43 ft 1 kts 65°
2026-04-29 14:39 67.27078 14.36635 43 ft 8 kts 143°
2026-04-29 14:39 67.27071 14.36807 46 ft 14 kts 78°
2026-04-29 14:40 67.27091 14.37062 49 ft 15 kts 78°
2026-04-29 14:40 67.27114 14.37350 50 ft 18 kts 77°
2026-04-29 14:40 67.27145 14.37693 52 ft 21 kts 77°
2026-04-29 14:40 67.27161 14.38073 55 ft 20 kts 90°
2026-04-29 14:41 67.27139 14.38352 51 ft 14 kts 146°
2026-04-29 14:41 67.27082 14.38376 53 ft 7 kts 211°
2026-04-29 14:41 67.27069 14.38290 51 ft 3 kts 258°
2026-04-29 14:41 67.27065 14.38235 53 ft 5 kts 258°
2026-04-29 14:42 67.27017 14.37663 49 ft 71 kts 257°
2026-04-29 14:42 67.26856 14.35792 39 ft 139 kts 255°
2026-04-29 14:42 67.26657 14.33095 562 ft 155 kts 256°
2026-04-29 14:42 67.26489 14.30476 1791 ft 134 kts 258°
2026-04-29 14:43 67.26242 14.28125 2821 ft 146 kts 236°
2026-04-29 14:43 67.25289 14.26423 3302 ft 190 kts 207°
2026-04-29 14:43 67.24023 14.25221 4009 ft 198 kts 207°
2026-04-29 14:43 67.22721 14.24000 4761 ft 200 kts 207°
2026-04-29 14:44 67.21404 14.22772 5490 ft 202 kts 207°
2026-04-29 14:44 67.20075 14.21536 6249 ft 205 kts 208°
2026-04-29 14:44 67.18702 14.20251 6925 ft 216 kts 207°
2026-04-29 14:44 67.17270 14.18920 7690 ft 226 kts 207°
2026-04-29 14:45 67.15750 14.17477 8430 ft 241 kts 208°
2026-04-29 14:45 67.14118 14.15939 9201 ft 258 kts 207°
2026-04-29 14:45 67.12372 14.14318 10016 ft 274 kts 207°
2026-04-29 14:45 67.10542 14.12625 10826 ft 285 kts 207°
2026-04-29 14:46 67.08633 14.10859 11722 ft 295 kts 207°
2026-04-29 14:46 67.06685 14.09065 12766 ft 300 kts 207°
2026-04-29 14:46 67.04706 14.07244 13804 ft 306 kts 207°
2026-04-29 14:46 67.02686 14.05385 14782 ft 312 kts 207°
2026-04-29 14:47 67.00589 14.03447 15385 ft 333 kts 207°
2026-04-29 14:47 66.98351 14.01366 15766 ft 357 kts 206°
2026-04-29 14:47 66.95982 13.99188 16621 ft 365 kts 206°
2026-04-29 14:47 66.94358 13.97708 17306 ft 369 kts 206°
2026-04-29 14:48 66.91126 13.94772 18524 ft 377 kts 206°
2026-04-29 14:48 66.88628 13.92503 19313 ft 385 kts 206°
2026-04-29 14:48 66.86085 13.90196 20134 ft 391 kts 207°
2026-04-29 14:48 66.83498 13.87852 20977 ft 398 kts 207°
2026-04-29 14:49 66.80867 13.85473 21813 ft 404 kts 207°
2026-04-29 14:49 66.78200 13.83064 22632 ft 411 kts 207°
2026-04-29 14:49 66.75479 13.80606 23366 ft 419 kts 208°
2026-04-29 14:49 66.72713 13.78118 24080 ft 425 kts 208°
2026-04-29 14:50 66.69911 13.75606 24814 ft 429 kts 208°
2026-04-29 14:50 66.67094 13.73094 25617 ft 431 kts 208°
2026-04-29 14:50 66.64258 13.70568 26365 ft 434 kts 209°
2026-04-29 14:50 66.61397 13.68024 27000 ft 438 kts 209°
2026-04-29 14:51 66.58516 13.65466 27680 ft 441 kts 209°
2026-04-29 14:51 66.55607 13.62886 28323 ft 446 kts 209°
2026-04-29 14:51 66.53662 13.61164 28731 ft 448 kts 209°
2026-04-29 14:51 66.50709 13.58558 29354 ft 452 kts 209°
2026-04-29 14:52 66.46754 13.55076 30137 ft 457 kts 209°
2026-04-29 14:52 66.43737 13.52430 30678 ft 461 kts 209°
2026-04-29 14:52 66.40701 13.49775 31144 ft 464 kts 209°
2026-04-29 14:52 66.37643 13.47110 31599 ft 467 kts 209°
2026-04-29 14:53 66.35569 13.45305 31915 ft 469 kts 209°
2026-04-29 14:53 66.31473 13.41751 32441 ft 472 kts 209°
2026-04-29 14:53 66.29409 13.39964 32690 ft 474 kts 208°
2026-04-29 14:53 66.26278 13.37258 33066 ft 477 kts 208°
2026-04-29 14:54 66.23141 13.34558 33558 ft 477 kts 208°
2026-04-29 14:54 66.20015 13.31880 34152 ft 474 kts 208°
2026-04-29 14:54 66.16906 13.29225 34643 ft 472 kts 208°
2026-04-29 14:54 66.13803 13.26576 35027 ft 472 kts 208°
2026-04-29 14:55 66.10690 13.23918 35372 ft 474 kts 207°
2026-04-29 14:55 66.07577 13.21267 35753 ft 474 kts 207°
2026-04-29 14:55 66.04463 13.18623 36133 ft 473 kts 207°
2026-04-29 14:55 66.01346 13.15984 36520 ft 473 kts 206°
2026-04-29 14:56 65.98227 13.13350 36826 ft 474 kts 206°
2026-04-29 14:56 65.95113 13.10726 37142 ft 474 kts 206°
2026-04-29 14:56 65.91988 13.08102 37461 ft 475 kts 205°
2026-04-29 14:56 65.88861 13.05482 37832 ft 474 kts 205°
2026-04-29 14:57 65.85744 13.02878 38202 ft 473 kts 205°
2026-04-29 14:57 65.82631 13.00284 38553 ft 473 kts 204°
2026-04-29 14:57 65.79514 12.97693 38881 ft 473 kts 204°
2026-04-29 14:57 65.76435 12.95138 39165 ft 473 kts 204°
2026-04-29 14:58 65.73325 12.92567 39463 ft 472 kts 204°
2026-04-29 14:58 65.70218 12.90003 39751 ft 471 kts 204°
2026-04-29 14:58 65.67121 12.87455 40051 ft 469 kts 204°
2026-04-29 14:58 65.64028 12.84916 40308 ft 470 kts 203°
2026-04-29 14:59 65.60918 12.82366 40283 ft 475 kts 203°
2026-04-29 14:59 65.54656 12.77255 40292 ft 474 kts 203°
2026-04-29 15:00 65.48460 12.72238 40282 ft 466 kts 203°
2026-04-29 15:00 65.42304 12.67264 40312 ft 468 kts 203°
2026-04-29 15:01 65.36107 12.62279 40310 ft 470 kts 203°
2026-04-29 15:01 65.29883 12.57301 40319 ft 472 kts 203°
2026-04-29 15:02 65.23676 12.52363 40323 ft 474 kts 203°
2026-04-29 15:02 65.17418 12.47410 40326 ft 473 kts 203°
2026-04-29 15:03 65.11170 12.42492 40320 ft 472 kts 203°
2026-04-29 15:03 65.04946 12.37615 40322 ft 470 kts 203°
2026-04-29 15:04 64.98777 12.32803 40322 ft 469 kts 203°
2026-04-29 15:04 64.92581 12.27993 40323 ft 468 kts 202°
2026-04-29 15:04 64.89441 12.25775 39517 ft 477 kts 199°
2026-04-29 15:05 64.86221 12.23927 38856 ft 477 kts 198°
2026-04-29 15:05 64.82971 12.22233 38019 ft 478 kts 197°
2026-04-29 15:05 64.79724 12.20592 37273 ft 476 kts 198°
2026-04-29 15:05 64.76492 12.18946 36519 ft 474 kts 198°
2026-04-29 15:06 64.73271 12.17272 35713 ft 474 kts 199°
2026-04-29 15:06 64.70051 12.15565 34851 ft 475 kts 199°
2026-04-29 15:06 64.66832 12.13836 33917 ft 476 kts 200°
2026-04-29 15:06 64.63601 12.12090 32900 ft 477 kts 200°
2026-04-29 15:07 64.60366 12.10341 31903 ft 478 kts 200°
2026-04-29 15:07 64.57121 12.08590 30858 ft 480 kts 199°
2026-04-29 15:07 64.53866 12.06840 29664 ft 482 kts 199°
2026-04-29 15:07 64.50623 12.05109 28870 ft 473 kts 199°
2026-04-29 15:08 64.47434 12.03417 28037 ft 467 kts 199°
2026-04-29 15:08 64.44290 12.01753 27267 ft 460 kts 199°
2026-04-29 15:08 64.41188 12.00110 26489 ft 454 kts 199°
2026-04-29 15:08 64.38124 11.98488 25709 ft 450 kts 198°
2026-04-29 15:09 64.35085 11.96880 24944 ft 445 kts 198°
2026-04-29 15:09 64.32077 11.95292 24186 ft 442 kts 198°
2026-04-29 15:09 64.29127 11.93738 23332 ft 438 kts 198°
2026-04-29 15:09 64.26171 11.92186 22506 ft 433 kts 198°
2026-04-29 15:10 64.23246 11.90656 21745 ft 428 kts 199°
2026-04-29 15:10 64.20360 11.89149 20967 ft 423 kts 199°
2026-04-29 15:10 64.17502 11.87659 20211 ft 419 kts 199°
2026-04-29 15:10 64.14670 11.86186 19471 ft 415 kts 199°
2026-04-29 15:11 64.11859 11.84724 18748 ft 412 kts 199°
2026-04-29 15:11 64.09068 11.83275 17891 ft 410 kts 199°
2026-04-29 15:11 64.06295 11.81840 17104 ft 406 kts 199°
2026-04-29 15:11 64.03556 11.80428 16349 ft 402 kts 199°
2026-04-29 15:12 64.00842 11.79032 15611 ft 397 kts 199°
2026-04-29 15:12 63.98194 11.77669 14914 ft 393 kts 199°
2026-04-29 15:12 63.95534 11.76303 14180 ft 390 kts 199°
2026-04-29 15:12 63.92899 11.74952 13384 ft 387 kts 199°
2026-04-29 15:13 63.90282 11.73613 12600 ft 383 kts 199°
2026-04-29 15:13 63.87697 11.72293 11827 ft 379 kts 198°
2026-04-29 15:13 63.85142 11.70992 11108 ft 374 kts 197°
2026-04-29 15:13 63.82629 11.69716 10754 ft 362 kts 197°
2026-04-29 15:14 63.80228 11.68507 10594 ft 344 kts 197°
2026-04-29 15:14 63.77941 11.67355 10443 ft 329 kts 198°
2026-04-29 15:14 63.75738 11.66242 10109 ft 322 kts 198°
2026-04-29 15:14 63.73556 11.65133 9614 ft 319 kts 197°
2026-04-29 15:15 63.71433 11.64061 9173 ft 306 kts 198°
2026-04-29 15:15 63.69396 11.63037 8730 ft 295 kts 198°
2026-04-29 15:15 63.67426 11.62046 8298 ft 285 kts 198°
2026-04-29 15:15 63.65526 11.61092 7902 ft 275 kts 198°
2026-04-29 15:16 63.63690 11.60169 7536 ft 266 kts 198°
2026-04-29 15:16 63.61908 11.59273 7163 ft 259 kts 198°
2026-04-29 15:16 63.60182 11.58422 6963 ft 248 kts 197°
2026-04-29 15:16 63.58501 11.57595 6549 ft 246 kts 198°
2026-04-29 15:17 63.56864 11.56767 6366 ft 238 kts 198°
2026-04-29 15:17 63.55266 11.55962 6241 ft 234 kts 198°
2026-04-29 15:17 63.53670 11.55154 6125 ft 237 kts 198°
2026-04-29 15:17 63.52071 11.54236 6033 ft 238 kts 204°
2026-04-29 15:18 63.50554 11.52977 5903 ft 232 kts 207°
2026-04-29 15:18 63.49067 11.51685 5678 ft 227 kts 207°
2026-04-29 15:18 63.47604 11.50422 5459 ft 223 kts 208°
2026-04-29 15:18 63.46341 11.48628 5206 ft 210 kts 239°
2026-04-29 15:19 63.45908 11.45732 4981 ft 192 kts 268°
2026-04-29 15:19 63.45828 11.42799 4697 ft 186 kts 270°
2026-04-29 15:19 63.45786 11.40005 4472 ft 175 kts 271°
2026-04-29 15:19 63.45769 11.37359 4413 ft 165 kts 272°
2026-04-29 15:20 63.45760 11.34729 4201 ft 171 kts 271°
2026-04-29 15:20 63.45746 11.32126 3954 ft 162 kts 271°
2026-04-29 15:20 63.45741 11.29636 3703 ft 158 kts 273°
2026-04-29 15:20 63.45746 11.27206 3463 ft 155 kts 272°
2026-04-29 15:21 63.45746 11.24783 3198 ft 156 kts 272°
2026-04-29 15:21 63.45745 11.22388 2983 ft 154 kts 272°
2026-04-29 15:21 63.45744 11.20008 2755 ft 153 kts 272°
2026-04-29 15:21 63.45742 11.17645 2482 ft 147 kts 272°
2026-04-29 15:22 63.45739 11.15439 2251 ft 137 kts 272°
2026-04-29 15:22 63.45740 11.13320 2069 ft 139 kts 270°
2026-04-29 15:22 63.45740 11.11143 1828 ft 139 kts 271°
2026-04-29 15:22 63.45742 11.08986 1610 ft 139 kts 272°
2026-04-29 15:23 63.45743 11.06876 1413 ft 129 kts 270°
2026-04-29 15:23 63.45743 11.04986 1176 ft 114 kts 272°
2026-04-29 15:23 63.45746 11.03303 1021 ft 106 kts 272°
2026-04-29 15:23 63.45747 11.01644 854 ft 106 kts 272°
2026-04-29 15:24 63.45747 10.99984 687 ft 108 kts 271°
2026-04-29 15:24 63.45740 10.98327 485 ft 107 kts 271°
2026-04-29 15:24 63.45748 10.96675 345 ft 107 kts 271°
2026-04-29 15:24 63.45756 10.95008 177 ft 107 kts 271°
2026-04-29 15:25 63.45759 10.93390 53 ft 97 kts 269°
2026-04-29 15:25 63.45760 10.92163 39 ft 61 kts 270°
2026-04-29 15:25 63.45761 10.91443 36 ft 39 kts 270°
2026-04-29 15:25 63.45761 10.90968 34 ft 26 kts 270°
2026-04-29 15:26 63.45739 10.90603 30 ft 21 kts 254°
2026-04-29 15:26 63.45677 10.90393 32 ft 14 kts 207°
2026-04-29 15:26 63.45602 10.90416 32 ft 11 kts 119°
2026-04-29 15:26 63.45597 10.90591 33 ft 12 kts 90°
2026-04-29 15:27 63.45597 10.90804 34 ft 16 kts 89°
2026-04-29 15:27 63.45598 10.91066 34 ft 17 kts 90°
2026-04-29 15:27 63.45596 10.91326 35 ft 16 kts 90°
2026-04-29 15:27 63.45596 10.91560 38 ft 12 kts 90°
2026-04-29 15:28 63.45596 10.91715 38 ft 6 kts 93°
2026-04-29 15:28 63.45575 10.91746 36 ft 6 kts 171°
2026-04-29 15:28 63.45519 10.91745 38 ft 4 kts 180°
2026-04-29 15:28 63.45497 10.91745 36 ft 0 kts 180°